OneWeb SL0393

operational
NORAD ID: 50473 Int'l Des: 2021-132 Owner: ONEWEBN Country: UK Constellation: oneweb
LEOCIRCULARPOLARONEWEB_TYPE

Über OneWeb SL0393

Beschreibung wird geladen...

Live-Position

3D-Globus wird geladen...

Nächste Überflüge

Höhenverlauf

Altitude vs Time

uPlot chart will show altitude changes over time

Zweizeiliger Elementsatz

1 50473U 21132E 25343.59298291 .00000060 00000-0 12219-3 0 9994
2 50473 87.9122 43.5571 0001694 107.2620 252.8697 13.17648439193146
Epoch: 9. Dez. 2025 • Age: 5 hours

Aktueller Status

Höhe 1205.3 km
Geschwindigkeit 7.25 km/s
Subsatellitenpunkt -28.58°S, 30.26°E
Startdatum 27. Dez. 2021
Alter 3.9 years
Typ internet

Technische Details

Klassifizierung Payload
Masse 148.00 kg
Trockenmasse 140.00 kg
Gesamtmasse 148.00 kg
Länge 1.30 m
Durchmesser 1.00 m
Spannweite 5.00 m
Form Trapezoid+2 pan
Hersteller ONEWUS
Bus-Typ ARROW
Phasenstatus In Orbit
Besitzer/Staat ONEWEBN/UK

Große Konstellationen

Loading constellations...